User: anonymous   Login
Location: Bacea
(45.9500°N, 22.6667°E)
Time: 13:42:11
(UTC+00:00)
Language:

Cosmos 1356 - Orbit

View from above orbital plane
View from above orbital plane
View from above satellite
View from above satellite

Ground track
Ground track

The orbit data is extracted from the following two-line orbital elements,

1 13153U 82039A   22019.99170027  .00011348  00000-0  24325-3 0  9990
2 13153  81.0902   8.6819 0003802  64.4409 295.7227 15.44607365177737
Epoch (UTC): 19 January 2022 23:48:02
Eccentricity: 0.0003802
inclination: 81.0902°
perigee height: 430 km
apogee height: 435 km
right ascension of ascending node: 8.6819°
argument of perigee: 64.4409°
revolutions per day: 15.44607365
mean anomaly at epoch: 295.7227°
orbit number at epoch: 17773

The dashed part of the orbit path shows where the satellite is in the earth's shadow,  

DLR